Weather History for Medford, WI

Change the Weather History Date:

Monday, March 10, 2014

  Actual Average Record
Temperature  
Mean Temperature 38 °F -  
Max Temperature 51 °F 34 °F 55 °F (2012)
Min Temperature 25 °F 14 °F -20 °F (1972)
Degree Days  
Heating Degree Days 27    
Moisture  
Dew Point 30 °F    
Average Humidity 72    
Maximum Humidity 98    
Minimum Humidity 45    
Precipitation  
Precipitation 0.00 in - - ()
Sea Level Pressure  
Sea Level Pressure 29.58 in    
Wind  
Wind Speed 6 mph (WSW)    
Max Wind Speed 15 mph    
Max Gust Speed 21 mph    
Visibility 9 miles    
Events      
Averages and records for this station are not official NWS values.
T = Trace of Precipitation, MM = Missing Value Source: NWS Daily Summary

Daily Weather History Graph

Daily Weather History Graph

Search for Another Location

Airport:

Trip Planner

Search our weather history database for the weather conditions in past years. The results will help you decide how hot, cold, wet, or windy it might be!

Date:

Astronomy

Mar. 10, 2014 Rise Set
Actual Time 7:22 AM CDT 7:00 PM CDT
Civil Twilight 6:53 AM CDT 7:30 PM CDT
Nautical Twilight 6:19 AM CDT 8:04 PM CDT
Astronomical Twilight 5:45 AM CDT 8:38 PM CDT
Moon 1:33 PM CDT (3/10) 3:45 AM CDT (3/10)
Length of Visible Light 12h 36m
Length of Day
11h 37m
Waxing Gibbous, 70% of the Moon is Illuminated
Mar 10
Waxing Gibbous
Mar 16
Full
Mar 23
Last Quarter
Mar 30
New
Apr 7
First Quarter

Hourly Weather History & Observations

Time (CDT) Temp. Windchill Dew Point Humidity Pressure Visibility Wind Dir Wind Speed Gust Speed Precip Events Conditions
12:15 AM 33.4 °F 30.4 °F 29.3 °F 85% 29.63 in 10.0 mi WSW 3.5 mph - N/A   Clear
12:30 AM 32.9 °F 29.8 °F 29.1 °F 86% 29.62 in 10.0 mi WSW 3.5 mph - N/A   Clear
12:55 AM 32.9 °F 29.8 °F 29.3 °F 87% 29.62 in 10.0 mi WSW 3.5 mph - N/A   Clear
1:15 AM 32.0 °F 28.7 °F 28.9 °F 88% 29.62 in 10.0 mi WSW 3.5 mph - N/A   Clear
1:35 AM 32.0 °F 28.7 °F 29.3 °F 90% 29.61 in 10.0 mi WSW 3.5 mph - N/A   Clear
1:55 AM 31.1 °F 26.4 °F 28.0 °F 88% 29.61 in 10.0 mi SW 4.6 mph - N/A   Clear
2:15 AM 31.1 °F 26.4 °F 28.2 °F 89% 29.61 in 10.0 mi SW 4.6 mph - N/A   Clear
2:35 AM 31.1 °F 26.4 °F 28.9 °F 92% 29.62 in 10.0 mi WSW 4.6 mph - N/A   Clear
2:55 AM 29.5 °F 24.5 °F 27.5 °F 92% 29.61 in 10.0 mi SW 4.6 mph - N/A   Clear
3:15 AM 30.2 °F 26.7 °F 28.2 °F 92% 29.60 in 10.0 mi WSW 3.5 mph - N/A   Clear
3:35 AM 27.5 °F 23.6 °F 26.4 °F 96% 29.59 in 5.0 mi SW 3.5 mph - N/A   Clear
3:55 AM 25.2 °F 19.5 °F 24.4 °F 97% 29.58 in 2.5 mi South 4.6 mph - N/A   Clear
4:15 AM 26.6 °F 21.2 °F 26.1 °F 98% 29.56 in 5.0 mi SSW 4.6 mph - N/A   Clear
4:35 AM 27.3 °F 22.0 °F 26.4 °F 96% 29.56 in 5.0 mi SSW 4.6 mph - N/A   Clear
4:55 AM 27.9 °F 21.5 °F 27.0 °F 96% 29.56 in 7.0 mi SSW 5.8 mph - N/A   Clear
5:10 AM 30.2 °F 24.3 °F 28.9 °F 95% 29.57 in 10.0 mi SW 5.8 mph - N/A   Clear
5:35 AM 30.6 °F 24.7 °F 29.1 °F 94% 29.57 in 7.0 mi SW 5.8 mph - N/A   Clear
5:55 AM 30.0 °F 24.1 °F 28.4 °F 94% 29.56 in 7.0 mi SW 5.8 mph - N/A   Clear
6:15 AM 28.0 °F 24.2 °F 26.6 °F 94% 29.56 in 7.0 mi SW 3.5 mph - N/A   Clear
6:35 AM 28.9 °F 22.8 °F 28.0 °F 96% 29.56 in 7.0 mi SW 5.8 mph - N/A   Clear
6:55 AM 29.1 °F 22.1 °F 28.4 °F 97% 29.56 in 7.0 mi SW 6.9 mph - N/A   Clear
7:15 AM 30.2 °F 24.3 °F 28.9 °F 95% 29.57 in 7.0 mi SW 5.8 mph - N/A   Clear
7:35 AM 29.7 °F 24.7 °F 28.6 °F 96% 29.56 in 5.0 mi SW 4.6 mph - N/A   Clear
7:55 AM 29.5 °F 24.5 °F 28.2 °F 95% 29.55 in 7.0 mi SW 4.6 mph - N/A   Clear
8:15 AM 30.2 °F 25.4 °F 28.6 °F 94% 29.56 in 7.0 mi WSW 4.6 mph - N/A   Clear
8:35 AM 31.8 °F 25.4 °F 29.7 °F 92% 29.55 in 10.0 mi WSW 6.9 mph - N/A   Clear
8:55 AM 32.5 °F 26.2 °F 30.2 °F 91% 29.55 in 10.0 mi WSW 6.9 mph - N/A   Clear
9:15 AM 35.4 °F 29.7 °F 31.3 °F 85% 29.54 in 10.0 mi WSW 6.9 mph - N/A   Clear
9:35 AM 37.4 °F 30.8 °F 32.0 °F 81% 29.55 in 10.0 mi West 9.2 mph - N/A   Clear
9:55 AM 38.1 °F 32.3 °F 32.0 °F 79% 29.54 in 10.0 mi West 8.1 mph - N/A   Clear
10:15 AM 38.7 °F 32.4 °F 32.0 °F 77% 29.54 in 10.0 mi WSW 9.2 mph - N/A   Clear
10:35 AM 39.9 °F 32.9 °F 32.0 °F 73% 29.54 in 10.0 mi West 11.5 mph 19.6 mph N/A   Clear
10:55 AM 41.4 °F 34.3 °F 32.2 °F 70% 29.54 in 10.0 mi West 12.7 mph 17.3 mph N/A   Clear
11:15 AM 43.7 °F 37.3 °F 32.5 °F 65% 29.55 in 10.0 mi West 12.7 mph - N/A   Clear
11:35 AM 45.3 °F 39.0 °F 32.4 °F 61% 29.55 in 10.0 mi West 13.8 mph 20.7 mph N/A   Clear
11:55 AM 45.9 °F 40.4 °F 32.4 °F 59% 29.55 in 10.0 mi West 11.5 mph - N/A   Clear
12:15 PM 46.8 °F - 32.4 °F 57% 29.56 in 10.0 mi West 10.4 mph - N/A   Clear
12:35 PM 47.5 °F - 32.4 °F 56% 29.56 in 10.0 mi West 13.8 mph - N/A   Clear
12:55 PM 48.2 °F - 32.4 °F 54% 29.55 in 10.0 mi West 10.4 mph - N/A   Clear
1:15 PM 48.6 °F - 32.2 °F 53% 29.55 in 10.0 mi West 10.4 mph - N/A   Clear
1:35 PM 49.8 °F - 32.2 °F 51% 29.55 in 10.0 mi West 12.7 mph - N/A   Clear
1:55 PM 50.2 °F - 32.0 °F 50% 29.55 in 10.0 mi West 11.5 mph - N/A   Clear
2:15 PM 50.0 °F - 32.0 °F 50% 29.54 in 10.0 mi West 11.5 mph - N/A   Clear
2:35 PM 50.9 °F - 31.8 °F 48% 29.54 in 10.0 mi West 12.7 mph - N/A   Clear
2:55 PM 50.7 °F - 31.3 °F 47% 29.54 in 10.0 mi West 10.4 mph - N/A   Clear
3:15 PM 51.3 °F - 30.9 °F 46% 29.56 in 10.0 mi West 12.7 mph - N/A   Clear
3:35 PM 50.9 °F - 30.4 °F 45% 29.55 in 10.0 mi West 15.0 mph 19.6 mph N/A   Clear
3:55 PM 50.5 °F - 30.2 °F 46% 29.55 in 10.0 mi West 11.5 mph 17.3 mph N/A   Clear
4:15 PM 50.5 °F - 31.1 °F 47% 29.55 in 10.0 mi WSW 8.1 mph - N/A   Clear
4:35 PM 50.7 °F - 31.6 °F 48% 29.55 in 10.0 mi WSW 9.2 mph - N/A   Clear
4:55 PM 49.5 °F - 31.1 °F 49% 29.55 in 10.0 mi West 10.4 mph - N/A   Clear
5:15 PM 48.6 °F - 30.7 °F 50% 29.56 in 10.0 mi West 10.4 mph - N/A   Clear
5:35 PM 48.2 °F - 30.2 °F 50% 29.56 in 10.0 mi West 8.1 mph - N/A   Clear
5:55 PM 46.9 °F - 30.6 °F 53% 29.56 in 10.0 mi West 5.8 mph - N/A   Clear
6:15 PM 46.4 °F 43.5 °F 30.6 °F 54% 29.56 in 10.0 mi WSW 5.8 mph - N/A   Clear
6:35 PM 45.9 °F 41.7 °F 30.6 °F 55% 29.57 in 10.0 mi WSW 8.1 mph - N/A   Clear
6:55 PM 44.4 °F 40.5 °F 30.4 °F 58% 29.58 in 10.0 mi SW 6.9 mph - N/A   Clear
7:15 PM 42.6 °F 39.0 °F 31.1 °F 64% 29.59 in 10.0 mi WSW 5.8 mph - N/A   Clear
7:35 PM 42.4 °F 38.8 °F 30.9 °F 64% 29.60 in 10.0 mi West 5.8 mph - N/A   Clear
7:55 PM 42.1 °F 38.4 °F 30.7 °F 64% 29.61 in 10.0 mi WSW 5.8 mph - N/A   Clear
8:15 PM 42.1 °F 37.1 °F 30.9 °F 65% 29.62 in 10.0 mi WSW 8.1 mph - N/A   Clear
8:35 PM 42.1 °F 37.7 °F 30.9 °F 65% 29.62 in 10.0 mi West 6.9 mph - N/A   Clear
8:55 PM 41.9 °F 38.2 °F 30.6 °F 64% 29.62 in 10.0 mi WSW 5.8 mph - N/A   Clear
9:15 PM 41.5 °F 37.8 °F 30.6 °F 65% 29.62 in 10.0 mi WSW 5.8 mph - N/A   Clear
9:35 PM 41.4 °F 37.6 °F 30.6 °F 65% 29.62 in 10.0 mi West 5.8 mph - N/A   Clear
9:55 PM 41.5 °F 36.4 °F 30.7 °F 65% 29.62 in 10.0 mi West 8.1 mph - N/A   Scattered Clouds
10:15 PM 41.0 °F 35.8 °F 30.6 °F 66% 29.62 in 10.0 mi West 8.1 mph - N/A   Mostly Cloudy
10:35 PM 40.5 °F 35.8 °F 30.2 °F 67% 29.63 in 10.0 mi West 6.9 mph - N/A   Mostly Cloudy
10:55 PM 41.0 °F 35.8 °F 30.2 °F 65% 29.64 in 10.0 mi West 8.1 mph - N/A   Overcast
11:15 PM 40.1 °F 34.7 °F 30.2 °F 68% 29.63 in 10.0 mi West 8.1 mph - N/A   Overcast
11:35 PM 40.1 °F 36.9 °F 30.0 °F 67% 29.63 in 10.0 mi West 4.6 mph - N/A   Overcast
11:55 PM 40.6 °F 36.0 °F 29.8 °F 65% 29.63 in 10.0 mi West 6.9 mph - N/A   Mostly Cloudy